BEIDOU-3 G4

Last updated on Sat Jun 21 2025 00:02:47 GMT+0000 (Coordinated Universal Time)

1 56564U 23066A 25171.57677057 -.00000100 00000+0 00000+0 0 9993 2 56564 1.2163 292.7117 0006463 186.8950 157.1099 1.00270688 7760
UTC large
Height (km)
Speed (km/s)
/
Latitude / Longitude
Inclination (degrees)
Orbital Period (minutes)
Azimuth
Elevation
Range (km)
Doppler Factor

Next 0 passes for location: London (51.5072 / 0.1276)

Sorry there are no passes over London.